AFL3500 ULLI-UUEE

Flight info

Callsign AFL3500
Flight time 1h 5m
Altitude 35000
Route SUGIN1A SUGIN T873 NIRGI T73 NAMIN NAMIN3F
Aircraft A321/M-SDE3FGHIRWY/LB1

Departure

Time 2026-05-04 14:46
Airport Pulkovo Airport (ULLI)

Arrival

Time 2026-05-04 15:51
Airport Sheremetyevo International Airport (UUEE)
Time Latitude Longitude Altitude Speed Heading
2026-05-04 14:06 59.79681 30.26242 82 ft 0 kts 107°
2026-05-04 14:39 59.79680 30.26246 81 ft 1 kts 107°
2026-05-04 14:40 59.79678 30.26317 82 ft 4 kts 60°
2026-05-04 14:40 59.79704 30.26355 82 ft 5 kts 27°
2026-05-04 14:40 59.79745 30.26378 80 ft 7 kts 17°
2026-05-04 14:40 59.79807 30.26415 80 ft 13 kts 17°
2026-05-04 14:41 59.79912 30.26477 81 ft 18 kts 17°
2026-05-04 14:41 59.80050 30.26559 86 ft 22 kts 16°
2026-05-04 14:41 59.80355 30.26738 83 ft 12 kts 16°
2026-05-04 14:42 59.80368 30.27043 82 ft 17 kts 107°
2026-05-04 14:42 59.80329 30.27302 85 ft 22 kts 106°
2026-05-04 14:42 59.80281 30.27627 82 ft 27 kts 107°
2026-05-04 14:43 59.80222 30.28023 81 ft 32 kts 106°
2026-05-04 14:43 59.80163 30.28419 79 ft 17 kts 106°
2026-05-04 14:43 59.80173 30.28597 67 ft 14 kts 52°
2026-05-04 14:43 59.80235 30.28742 72 ft 14 kts 49°
2026-05-04 14:44 59.80298 30.28864 72 ft 12 kts 18°
2026-05-04 14:44 59.80342 30.28762 74 ft 10 kts 286°
2026-05-04 14:44 59.80347 30.28729 69 ft 0 kts 287°
2026-05-04 14:45 59.80351 30.28706 74 ft 12 kts 287°
2026-05-04 14:45 59.80450 30.28042 73 ft 85 kts 287°
2026-05-04 14:45 59.80677 30.26532 82 ft 141 kts 287°
2026-05-04 14:45 59.80974 30.24393 219 ft 171 kts 283°
2026-05-04 14:46 59.81314 30.22159 895 ft 168 kts 284°
2026-05-04 14:46 59.81651 30.19969 1522 ft 164 kts 278°
2026-05-04 14:46 59.81972 30.17813 2106 ft 161 kts 276°
2026-05-04 14:46 59.82286 30.15696 2676 ft 158 kts 277°
2026-05-04 14:47 59.82593 30.13619 3226 ft 156 kts 276°
2026-05-04 14:47 59.82904 30.11474 3475 ft 171 kts 276°
2026-05-04 14:47 59.83242 30.09077 3598 ft 190 kts 277°
2026-05-04 14:47 59.83618 30.06425 3813 ft 207 kts 278°
2026-05-04 14:48 59.83093 29.96651 6287 ft 214 kts 210°
2026-05-04 14:49 59.81666 29.95710 6884 ft 218 kts 206°
2026-05-04 14:49 59.80202 29.94896 7510 ft 220 kts 205°
2026-05-04 14:49 59.78717 29.94099 8097 ft 222 kts 205°
2026-05-04 14:49 59.77216 29.93290 8686 ft 224 kts 205°
2026-05-04 14:50 59.75705 29.92477 9245 ft 226 kts 202°
2026-05-04 14:50 59.74068 29.92623 9707 ft 256 kts 170°
2026-05-04 14:50 59.72548 29.94854 9960 ft 297 kts 136°
2026-05-04 14:50 59.71498 29.98660 10096 ft 332 kts 117°
2026-05-04 14:51 59.70804 30.03211 10226 ft 358 kts 108°
2026-05-04 14:51 59.70273 30.08116 10352 ft 379 kts 105°
2026-05-04 14:51 59.69752 30.13374 10455 ft 400 kts 103°
2026-05-04 14:51 59.69580 30.18962 10836 ft 413 kts 90°
2026-05-04 14:52 59.69641 30.24684 11387 ft 417 kts 92°
2026-05-04 14:52 59.69579 30.30441 11975 ft 420 kts 95°
2026-05-04 14:52 59.69238 30.36165 12529 ft 418 kts 107°
2026-05-04 14:52 59.68532 30.41774 13116 ft 421 kts 108°
2026-05-04 14:53 59.67864 30.47450 13705 ft 425 kts 107°
2026-05-04 14:53 59.67236 30.53196 14291 ft 429 kts 106°
2026-05-04 14:53 59.66626 30.58996 14885 ft 432 kts 106°
2026-05-04 14:53 59.66017 30.64834 15466 ft 435 kts 105°
2026-05-04 14:54 59.65408 30.70703 16047 ft 438 kts 105°
2026-05-04 14:54 59.64858 30.76654 16611 ft 442 kts 103°
2026-05-04 14:54 59.64367 30.82676 17151 ft 445 kts 102°
2026-05-04 14:54 59.63904 30.88748 17723 ft 448 kts 102°
2026-05-04 14:55 59.63438 30.94864 18223 ft 451 kts 102°
2026-05-04 14:55 59.62953 31.00998 18672 ft 453 kts 103°
2026-05-04 14:55 59.62445 31.07155 19126 ft 455 kts 103°
2026-05-04 14:55 59.61918 31.13345 19583 ft 458 kts 103°
2026-05-04 14:56 59.61391 31.19468 20022 ft 460 kts 103°
2026-05-04 14:56 59.60851 31.25724 20470 ft 463 kts 103°
2026-05-04 14:56 59.60304 31.31996 20907 ft 465 kts 103°
2026-05-04 14:56 59.59751 31.38313 21357 ft 468 kts 103°
2026-05-04 14:57 59.59194 31.44657 21798 ft 470 kts 103°
2026-05-04 14:57 59.58634 31.51044 22221 ft 473 kts 103°
2026-05-04 14:57 59.58067 31.57465 22628 ft 476 kts 103°
2026-05-04 14:57 59.57494 31.63928 23049 ft 479 kts 103°
2026-05-04 14:58 59.56915 31.70420 23457 ft 481 kts 103°
2026-05-04 14:58 59.56327 31.76925 23811 ft 483 kts 103°
2026-05-04 14:58 59.55735 31.83456 24159 ft 485 kts 103°
2026-05-04 14:58 59.55339 31.87797 24388 ft 486 kts 103°
2026-05-04 14:59 59.54531 31.96605 24834 ft 489 kts 103°
2026-05-04 14:59 59.53716 32.03098 25147 ft 488 kts 112°
2026-05-04 14:59 59.50696 32.14913 25762 ft 481 kts 130°
2026-05-04 15:00 59.48629 32.19936 26077 ft 476 kts 139°
2026-05-04 15:00 59.46291 32.24557 26395 ft 477 kts 141°
2026-05-04 15:00 59.43928 32.29159 26719 ft 479 kts 141°
2026-05-04 15:01 59.39162 32.38414 27345 ft 483 kts 141°
2026-05-04 15:01 59.36769 32.43056 27653 ft 485 kts 141°
2026-05-04 15:01 59.34370 32.47706 28004 ft 485 kts 141°
2026-05-04 15:01 59.31974 32.52347 28475 ft 483 kts 141°
2026-05-04 15:02 59.30393 32.55400 28760 ft 482 kts 141°
2026-05-04 15:02 59.28008 32.59999 29172 ft 481 kts 141°
2026-05-04 15:02 59.25620 32.64585 29539 ft 481 kts 141°
2026-05-04 15:02 59.23235 32.69152 29879 ft 480 kts 141°
2026-05-04 15:03 59.20848 32.73718 30180 ft 480 kts 141°
2026-05-04 15:03 59.18465 32.78269 30495 ft 479 kts 141°
2026-05-04 15:03 59.16086 32.82806 30799 ft 479 kts 141°
2026-05-04 15:03 59.13703 32.87336 31101 ft 478 kts 141°
2026-05-04 15:04 59.11322 32.91849 31405 ft 477 kts 141°
2026-05-04 15:04 59.08941 32.96349 31716 ft 476 kts 141°
2026-05-04 15:04 59.06567 33.00822 32026 ft 476 kts 141°
2026-05-04 15:04 59.04189 33.05297 32343 ft 475 kts 141°
2026-05-04 15:05 59.01822 33.09757 32653 ft 474 kts 141°
2026-05-04 15:05 58.99457 33.14220 32980 ft 473 kts 141°
2026-05-04 15:05 58.97127 33.18611 33286 ft 472 kts 141°
2026-05-04 15:05 58.94765 33.23037 33585 ft 471 kts 142°
2026-05-04 15:06 58.92405 33.27439 33855 ft 471 kts 142°
2026-05-04 15:06 58.90048 33.31825 34089 ft 471 kts 142°
2026-05-04 15:06 58.87682 33.36218 34311 ft 470 kts 142°
2026-05-04 15:07 58.82957 33.44973 34679 ft 471 kts 141°
2026-05-04 15:07 58.78230 33.53716 34741 ft 471 kts 141°
2026-05-04 15:08 58.73485 33.62429 34739 ft 470 kts 141°
2026-05-04 15:08 58.68749 33.71112 34732 ft 470 kts 141°
2026-05-04 15:09 58.64010 33.79777 34754 ft 470 kts 141°
2026-05-04 15:09 58.59262 33.88415 34705 ft 470 kts 141°
2026-05-04 15:10 58.52167 34.01240 34723 ft 470 kts 141°
2026-05-04 15:11 58.45019 34.14079 34733 ft 470 kts 141°
2026-05-04 15:11 58.40254 34.22605 34738 ft 470 kts 141°
2026-05-04 15:12 58.35484 34.31117 34729 ft 470 kts 141°
2026-05-04 15:12 58.30699 34.39626 34731 ft 471 kts 141°
2026-05-04 15:13 58.25904 34.48105 34737 ft 471 kts 141°
2026-05-04 15:13 58.21099 34.56563 34743 ft 471 kts 141°
2026-05-04 15:14 58.16193 34.64782 34748 ft 470 kts 144°
2026-05-04 15:14 58.11148 34.72647 34732 ft 469 kts 144°
2026-05-04 15:15 58.06080 34.80458 34745 ft 470 kts 144°
2026-05-04 15:15 58.01081 34.88281 34750 ft 470 kts 144°
2026-05-04 15:16 57.93555 35.00122 34753 ft 470 kts 144°
2026-05-04 15:17 57.86005 35.11882 34743 ft 469 kts 144°
2026-05-04 15:17 57.78445 35.23562 34756 ft 469 kts 144°
2026-05-04 15:18 57.73407 35.31325 34760 ft 469 kts 144°
2026-05-04 15:19 57.65835 35.42927 34752 ft 469 kts 144°
2026-05-04 15:19 57.58262 35.54475 34765 ft 469 kts 143°
2026-05-04 15:20 57.53220 35.62166 34772 ft 468 kts 143°
2026-05-04 15:20 57.48165 35.69844 34274 ft 471 kts 144°
2026-05-04 15:21 57.45602 35.73718 33292 ft 478 kts 144°
2026-05-04 15:21 57.43046 35.77582 32437 ft 481 kts 143°
2026-05-04 15:21 57.37816 35.85462 30621 ft 488 kts 144°
2026-05-04 15:22 57.35173 35.89440 29636 ft 492 kts 144°
2026-05-04 15:22 57.32498 35.93460 28542 ft 496 kts 144°
2026-05-04 15:22 57.27161 36.01449 27131 ft 488 kts 144°
2026-05-04 15:23 57.24529 36.05380 26445 ft 485 kts 144°
2026-05-04 15:23 57.21911 36.09275 25802 ft 481 kts 144°
2026-05-04 15:23 57.19311 36.13136 25143 ft 478 kts 144°
2026-05-04 15:23 57.16730 36.16959 24509 ft 474 kts 144°
2026-05-04 15:24 57.11613 36.24520 23233 ft 468 kts 144°
2026-05-04 15:24 57.06579 36.31943 21997 ft 457 kts 144°
2026-05-04 15:25 57.04113 36.35570 21427 ft 452 kts 144°
2026-05-04 15:25 57.01667 36.39150 20912 ft 445 kts 144°
2026-05-04 15:25 56.99254 36.42650 20396 ft 439 kts 145°
2026-05-04 15:26 56.94545 36.49434 19442 ft 427 kts 144°
2026-05-04 15:26 56.92225 36.52765 18992 ft 421 kts 144°
2026-05-04 15:26 56.87680 36.59281 18092 ft 410 kts 144°
2026-05-04 15:27 56.85453 36.62487 17616 ft 405 kts 144°
2026-05-04 15:27 56.81097 36.68791 16736 ft 394 kts 144°
2026-05-04 15:28 56.76872 36.74883 16176 ft 377 kts 144°
2026-05-04 15:28 56.74853 36.77825 15979 ft 367 kts 141°
2026-05-04 15:28 56.71893 36.85280 15580 ft 368 kts 114°
2026-05-04 15:29 56.71169 36.89753 15087 ft 369 kts 99°
2026-05-04 15:30 56.69631 37.08098 13448 ft 362 kts 99°
2026-05-04 15:30 56.68453 37.21523 12147 ft 357 kts 99°
2026-05-04 15:31 56.67670 37.30409 11366 ft 352 kts 99°
2026-05-04 15:31 56.67053 37.34615 11235 ft 338 kts 116°
2026-05-04 15:32 56.62262 37.42589 10408 ft 308 kts 162°
2026-05-04 15:32 56.58312 37.45689 9600 ft 308 kts 161°
2026-05-04 15:33 56.54436 37.48780 9095 ft 295 kts 164°
2026-05-04 15:34 56.49113 37.47702 8997 ft 249 kts 220°
2026-05-04 15:34 56.47699 37.45877 9003 ft 250 kts 220°
2026-05-04 15:34 56.44860 37.42240 8967 ft 249 kts 223°
2026-05-04 15:35 56.43233 37.37201 8929 ft 229 kts 264°
2026-05-04 15:35 56.43237 37.34336 8858 ft 228 kts 274°
2026-05-04 15:35 56.43325 37.31482 8789 ft 227 kts 273°
2026-05-04 15:36 56.43487 37.25787 8655 ft 227 kts 273°
2026-05-04 15:36 56.43524 37.22940 8587 ft 227 kts 266°
2026-05-04 15:36 56.43157 37.20210 8519 ft 229 kts 249°
2026-05-04 15:37 56.42460 37.17623 8450 ft 229 kts 246°
2026-05-04 15:37 56.41758 37.15046 8368 ft 228 kts 247°
2026-05-04 15:37 56.41055 37.12476 8296 ft 228 kts 245°
2026-05-04 15:37 56.40000 37.10321 8217 ft 236 kts 217°
2026-05-04 15:38 56.38416 37.09409 8139 ft 248 kts 186°
2026-05-04 15:38 56.36727 37.10229 8066 ft 262 kts 151°
2026-05-04 15:38 56.35318 37.12370 7990 ft 266 kts 141°
2026-05-04 15:38 56.33961 37.14635 7906 ft 266 kts 141°
2026-05-04 15:39 56.32606 37.16912 7821 ft 266 kts 141°
2026-05-04 15:39 56.31248 37.19193 7745 ft 266 kts 141°
2026-05-04 15:39 56.28533 37.23721 7583 ft 265 kts 141°
2026-05-04 15:40 56.27179 37.25966 7502 ft 265 kts 141°
2026-05-04 15:40 56.25800 37.28151 7415 ft 262 kts 148°
2026-05-04 15:40 56.24242 37.29668 7344 ft 255 kts 165°
2026-05-04 15:40 56.22551 37.30548 7277 ft 253 kts 170°
2026-05-04 15:41 56.20855 37.31383 7197 ft 253 kts 170°
2026-05-04 15:41 56.19162 37.32224 7119 ft 253 kts 169°
2026-05-04 15:41 56.17609 37.33748 7037 ft 262 kts 138°
2026-05-04 15:41 56.16736 37.36626 6901 ft 269 kts 102°
2026-05-04 15:42 56.16852 37.39922 6588 ft 266 kts 73°
2026-05-04 15:42 56.17330 37.43129 6307 ft 265 kts 72°
2026-05-04 15:42 56.17831 37.46309 6022 ft 264 kts 72°
2026-05-04 15:42 56.18330 37.49477 5748 ft 263 kts 72°
2026-05-04 15:43 56.18818 37.52628 5478 ft 261 kts 73°
2026-05-04 15:43 56.19163 37.55815 5207 ft 260 kts 89°
2026-05-04 15:43 56.18902 37.58993 4948 ft 257 kts 111°
2026-05-04 15:43 56.18053 37.61761 4841 ft 252 kts 132°
2026-05-04 15:44 56.16858 37.64030 4736 ft 250 kts 138°
2026-05-04 15:44 56.15659 37.66225 4598 ft 249 kts 138°
2026-05-04 15:44 56.14449 37.68442 4480 ft 248 kts 138°
2026-05-04 15:44 56.13243 37.70656 4350 ft 247 kts 138°
2026-05-04 15:45 56.12071 37.72807 4245 ft 236 kts 138°
2026-05-04 15:45 56.10935 37.74889 4144 ft 230 kts 139°
2026-05-04 15:45 56.09710 37.76517 4049 ft 209 kts 161°
2026-05-04 15:45 56.08338 37.77020 3928 ft 198 kts 186°
2026-05-04 15:46 56.07022 37.76527 3762 ft 192 kts 202°
2026-05-04 15:46 56.05750 37.75782 3592 ft 191 kts 201°
2026-05-04 15:46 56.04513 37.75078 3456 ft 184 kts 201°
2026-05-04 15:46 56.03303 37.74362 3293 ft 181 kts 206°
2026-05-04 15:47 56.02286 37.73152 3153 ft 177 kts 226°
2026-05-04 15:47 56.01588 37.71367 3013 ft 176 kts 246°
2026-05-04 15:47 56.01235 37.69266 2864 ft 177 kts 255°
2026-05-04 15:47 56.00925 37.67138 2720 ft 177 kts 255°
2026-05-04 15:48 56.00614 37.65012 2580 ft 176 kts 254°
2026-05-04 15:48 56.00313 37.62957 2438 ft 163 kts 254°
2026-05-04 15:48 55.99748 37.59122 2245 ft 157 kts 254°
2026-05-04 15:49 55.99479 37.57293 2073 ft 149 kts 253°
2026-05-04 15:49 55.99217 37.55518 1889 ft 146 kts 253°
2026-05-04 15:49 55.98962 37.53791 1713 ft 144 kts 252°
2026-05-04 15:49 55.98706 37.52057 1524 ft 144 kts 253°
2026-05-04 15:50 55.98451 37.50334 1344 ft 143 kts 254°
2026-05-04 15:50 55.98196 37.48598 1167 ft 143 kts 253°
2026-05-04 15:50 55.98024 37.47435 1047 ft 144 kts 256°
2026-05-04 15:50 55.97770 37.45695 820 ft 144 kts 254°
2026-05-04 15:51 55.97519 37.44015 654 ft 140 kts 254°
2026-05-04 15:51 55.97301 37.42553 643 ft 94 kts 255°
2026-05-04 15:51 55.97179 37.41739 640 ft 33 kts 255°
2026-05-04 15:51 55.97139 37.41471 644 ft 15 kts 255°
2026-05-04 15:52 55.97178 37.41342 640 ft 12 kts 339°
2026-05-04 15:52 55.97221 37.41319 639 ft 2 kts 345°
2026-05-04 15:52 55.97234 37.41313 639 ft 1 kts 345°
2026-05-04 15:52 55.97239 37.41311 639 ft 0 kts 345°
2026-05-04 15:53 55.97239 37.41310 639 ft 1 kts 345°
2026-05-04 15:53 55.97300 37.41281 640 ft 17 kts 345°
2026-05-04 15:53 55.97412 37.41229 640 ft 11 kts 345°
2026-05-04 15:54 55.97453 37.41210 639 ft 0 kts 345°
2026-05-04 15:56 55.97455 37.41209 639 ft 2 kts 345°
2026-05-04 15:56 55.97506 37.41191 643 ft 11 kts
2026-05-04 15:56 55.97554 37.41311 641 ft 15 kts 75°
2026-05-04 15:56 55.97581 37.41497 640 ft 10 kts 75°
2026-05-04 15:57 55.97618 37.41594 641 ft 9 kts 20°
2026-05-04 15:57 55.97680 37.41581 639 ft 9 kts 346°
2026-05-04 15:57 55.97742 37.41552 640 ft 9 kts 345°
2026-05-04 15:57 55.97802 37.41524 639 ft 8 kts 350°
2026-05-04 15:58 55.97831 37.41580 639 ft 6 kts 72°
2026-05-04 15:58 55.97838 37.41628 645 ft 2 kts 75°
2026-05-04 15:58 55.97839 37.41633 644 ft 0 kts 75°